#timestamp,LO_Frequency,Hit,StdDev 
1584702015.0,286046984.4,N
1584702015.9,286046984.4,N
1584702035.8,286046982.4,N
1584702055.6,286046986.0,N
1584702075.4,286046986.0,N
1584702095.3,286046988.3,N
1584702115.1,286046987.4,N
1584702135.9,286046985.9,N
1584702155.7,286046985.0,N
1584702175.5,286046989.6,N
1584702195.4,286046987.2,N
1584702215.2,286046983.7,N
1584702235.0,286046984.7,N
1584702236.0,286046984.7,N
1584702255.8,286046985.0,Y
1584702275.6,286046992.7,P
1584702295.5,286046991.8,P
1584702315.3,286046995.9,P
1584702335.1,286046995.2,N
1584702355.9,286046996.3,N
1584702375.7,286047004.3,N
1584702395.6,286047004.1,N
1584702415.4,286046998.7,N
1584702435.2,286046997.1,N
1584702455.1,286046998.8,N
1584702456.0,286046998.8,N
1584702475.8,286046996.2,N
1584702495.6,286046995.5,N
1584702515.5,286046995.4,N
1584702535.3,286046999.3,N
1584702555.2,286046998.4,N
1584702575.9,286047002.5,N
1584702595.7,286047002.6,N
1584702615.6,286047000.3,N
1584702635.4,286046997.3,N
1584702655.2,286046994.5,N
1584702675.1,286047004.0,N
1584702676.0,286047004.0,N
1584702695.8,286047002.5,N
1584702715.7,286046997.7,N
1584702735.5,286046995.3,N
1584702755.4,286046992.2,N
1584702775.2,286046989.2,N
1584702795.0,286046989.8,N
1584702795.9,286046989.8,N
1584702815.8,286046989.4,N
1584702835.6,286046985.3,Y
1584702855.4,286046991.2,P
1584702875.3,286046992.3,N
1584702895.1,286046991.9,P
1584702915.9,286046992.5,Y
1584702935.7,286047000.5,P
1584702955.5,286046999.6,N
1584702975.4,286046997.8,N
1584702995.2,286046997.4,N
1584703015.1,286047002.3,N
1584703016.0,286047002.3,N
1584703035.8,286047000.0,N
1584703055.6,286047001.6,N
1584703075.5,286047005.8,N
1584703095.3,286047001.4,N
1584703115.1,286047000.9,N
1584703135.9,286046999.8,N
1584703155.7,286046999.9,N
1584703175.6,286047003.4,N
1584703195.4,286047002.3,N
1584703215.2,286047001.5,N
1584703235.1,286047001.6,N
1584703236.0,286047001.6,N
1584703255.8,286047002.2,N
1584703275.7,286046997.3,N
1584703295.5,286046995.2,N
1584703315.3,286046995.7,N
1584703335.2,286046998.0,N
1584703355.9,286046999.9,N
1584703375.7,286047005.8,N
1584703395.6,286047004.4,N
1584703415.4,286047001.2,N
1584703435.2,286047000.5,N
1584703455.1,286047001.2,N
1584703456.0,286047001.2,N
1584703475.8,286047000.4,N
1584703495.7,286046997.4,N
1584703515.5,286046997.0,N
1584703535.3,286046994.1,N
1584703555.2,286046993.3,N
1584703575.0,286046999.4,N
1584703575.9,286046999.4,N
1584703595.7,286046998.8,N
1584703615.6,286046997.0,N
1584703635.4,286046999.5,N
1584703655.3,286046997.1,N
1584703675.1,286046996.3,N
1584703676.0,286046996.3,N
1584703695.8,286046995.1,N
1584703715.7,286046994.9,N
1584703735.5,286046999.5,N
1584703755.3,286046999.0,N
1584703775.2,286047000.5,N
1584703795.0,286046996.2,N
1584703795.9,286046996.2,N
1584703815.8,286046996.4,N
1584703835.6,286046991.8,N
1584703855.4,286046990.5,Y
1584703875.3,286046992.7,P
1584703895.1,286046992.2,N
1584703915.9,286046995.1,N
1584703935.7,286046993.6,N
1584703955.5,286046992.4,Y
1584703975.4,286047000.8,P
1584703995.2,286047000.5,N
1584704015.0,286046998.5,N
1584704015.9,286046998.5,N
1584704035.8,286047001.2,N
1584704055.6,286047003.1,N
1584704075.5,286047008.5,Y
1584704095.3,286047012.1,P
1584704115.1,286047010.1,N
1584704135.9,286047005.0,N
1584704155.7,286047003.5,N
1584704175.6,286047002.5,N
1584704195.4,286047001.3,N
1584704215.2,286047002.6,N
1584704235.1,286046998.6,N
1584704236.0,286046998.6,N
1584704255.8,286046997.5,N
1584704275.6,286046996.1,N
1584704295.5,286046994.3,N
1584704315.3,286046991.8,N
1584704335.2,286046995.3,N
1584704355.9,286046993.4,N
1584704375.7,286046995.5,N
1584704395.6,286046993.4,N
1584704415.4,286046999.6,N
1584704435.2,286046999.0,N
1584704455.1,286047001.9,N
1584704456.0,286047001.9,N
1584704475.8,286047004.0,N
1584704495.7,286047001.7,N
1584704515.5,286047007.0,N
1584704565.3,286046996.5,E
1584704575.3,286046998.3,N
1584704595.1,286047008.8,P
1584704596.0,286047008.8,N
1584704615.8,286047006.9,N
1584704635.7,286047000.5,N
1584704655.5,286046999.4,N
1584704675.3,286047001.0,N
1584704695.2,286047001.6,N
1584704715.0,286046999.5,N
1584704715.9,286046999.5,N
1584704735.8,286046997.2,N
1584704755.6,286046997.3,N
1584704775.5,286046997.9,N
1584704795.3,286046997.1,N
1584704815.1,286046997.8,N
1584704835.9,286046995.8,N
1584704855.7,286046997.1,N
1584704875.5,286046993.7,N
1584704895.4,286046990.6,N
1584704915.2,286046992.6,N
1584704935.1,286046996.0,N
1584704936.0,286046996.0,N
1584704955.8,286046992.4,N
1584704975.6,286046993.4,N
1584704995.5,286046993.7,N
1584705015.3,286046993.0,N
1584705035.1,286046992.7,N
1584705055.9,286046992.1,N
1584705075.7,286046997.4,N
1584705095.6,286046994.8,N
1584705115.4,286046992.1,N
1584705135.2,286046992.4,N
1584705155.1,286046991.2,N
1584705156.0,286046991.2,N
1584705175.8,286046989.6,Y
1584705195.7,286046992.0,P
1584705215.5,286046994.6,P
1584705235.3,286046993.9,P
1584705255.2,286046992.1,Y
1584705275.0,286046994.9,P
1584705275.9,286046994.9,P
1584705295.8,286046997.1,P
1584705315.6,286046997.1,N
1584705335.4,286046995.0,Y
1584705355.3,286046998.3,P
1584705375.1,286046998.7,N
1584705395.8,286046999.6,N
1584705415.7,286046999.5,N
1584705435.5,286047001.2,N
1584705455.4,286046998.6,N
1584705475.2,286047000.0,N
1584705495.0,286047000.5,N
1584705495.9,286047000.5,N
1584705515.8,286047001.5,N
1584705535.6,286047004.8,Y
1584705555.4,286047014.8,P
1584705575.3,286047011.4,N
1584705595.1,286047011.0,N
